Time,TemperatureF,DewpointF,PressureIn,WindDirection,WindDirectionDegrees,WindSpeedMPH,WindSpeedGustMPH,Humidity,HourlyPrecipIn,Conditions,Clouds,dailyrainin,SolarRadiationWatts/m^2,SoftwareType,DateUTC
2013-01-31 08:11:00,6.0,-5.0,-100.00,NNW,327,9.0,16.0,60,0.00,,,0.00,2.000000,,2013-01-31 14:11:00,
2013-01-31 08:22:00,6.0,-5.0,-100.00,NNW,327,9.0,16.0,60,0.00,,,0.00,2.000000,,2013-01-31 14:22:00,
2013-01-31 08:32:00,6.0,-5.0,-100.00,NNW,327,9.0,16.0,60,0.00,,,0.00,2.000000,,2013-01-31 14:32:00,
2013-01-31 08:42:00,6.0,-5.0,-100.00,NNW,327,9.0,16.0,60,0.00,,,0.00,2.000000,,2013-01-31 14:42:00,
2013-01-31 09:12:00,6.0,-5.0,-100.00,NW,321,10.0,18.0,59,0.00,,,0.00,59.000000,,2013-01-31 15:12:00,
2013-01-31 09:22:00,6.0,-5.0,-100.00,NW,321,10.0,18.0,59,0.00,,,0.00,59.000000,,2013-01-31 15:22:00,
2013-01-31 09:32:00,6.0,-5.0,-100.00,NW,321,10.0,18.0,59,0.00,,,0.00,59.000000,,2013-01-31 15:32:00,
2013-01-31 09:42:00,6.0,-5.0,-100.00,NW,321,10.0,18.0,59,0.00,,,0.00,59.000000,,2013-01-31 15:42:00,
2013-01-31 10:12:00,7.0,-5.0,-100.00,NW,324,12.0,27.0,56,0.00,,,0.00,249.000000,,2013-01-31 16:12:00,
2013-01-31 10:22:00,7.0,-5.0,-100.00,NW,324,12.0,27.0,56,0.00,,,0.00,249.000000,,2013-01-31 16:22:00,
2013-01-31 10:33:00,7.0,-5.0,-100.00,NW,324,12.0,27.0,56,0.00,,,0.00,249.000000,,2013-01-31 16:33:00,
2013-01-31 10:42:00,7.0,-5.0,-100.00,NW,324,12.0,27.0,56,0.00,,,0.00,249.000000,,2013-01-31 16:42:00,
2013-01-31 11:12:00,6.0,-5.0,-100.00,NNW,332,12.0,24.0,60,0.00,,,0.00,230.000000,,2013-01-31 17:12:00,
2013-01-31 11:23:00,6.0,-5.0,-100.00,NNW,332,12.0,24.0,60,0.00,,,0.00,230.000000,,2013-01-31 17:23:00,
2013-01-31 11:32:00,6.0,-5.0,-100.00,NNW,332,12.0,24.0,60,0.00,,,0.00,230.000000,,2013-01-31 17:32:00,
2013-01-31 11:43:00,6.0,-5.0,-100.00,NNW,332,12.0,24.0,60,0.00,,,0.00,230.000000,,2013-01-31 17:43:00,
2013-01-31 12:12:00,8.0,-5.0,-100.00,NNW,330,12.0,27.0,54,0.00,,,0.00,500.000000,,2013-01-31 18:12:00,
2013-01-31 12:22:00,8.0,-5.0,-100.00,NNW,330,12.0,27.0,54,0.00,,,0.00,500.000000,,2013-01-31 18:22:00,
2013-01-31 12:32:00,8.0,-5.0,-100.00,NNW,330,12.0,27.0,54,0.00,,,0.00,500.000000,,2013-01-31 18:32:00,
2013-01-31 12:43:00,8.0,-5.0,-100.00,NNW,330,12.0,27.0,54,0.00,,,0.00,500.000000,,2013-01-31 18:43:00,
2013-01-31 13:12:00,8.0,-6.0,-100.00,NW,315,13.0,28.0,51,0.00,,,0.00,586.000000,,2013-01-31 19:12:00,
2013-01-31 13:22:00,8.0,-6.0,-100.00,NW,315,13.0,28.0,51,0.00,,,0.00,586.000000,,2013-01-31 19:22:00,
2013-01-31 13:32:00,8.0,-6.0,-100.00,NW,315,13.0,28.0,51,0.00,,,0.00,586.000000,,2013-01-31 19:32:00,
2013-01-31 13:42:00,8.0,-6.0,-100.00,NW,315,13.0,28.0,51,0.00,,,0.00,586.000000,,2013-01-31 19:42:00,
2013-01-31 14:11:00,9.0,-6.0,-100.00,NW,319,13.0,27.0,49,0.00,,,-99.99,638.000000,,2013-01-31 20:11:00,
2013-01-31 14:22:00,9.0,-6.0,-100.00,NW,319,13.0,27.0,49,0.00,,,-99.99,638.000000,,2013-01-31 20:22:00,
2013-01-31 14:31:00,9.0,-6.0,-100.00,NW,319,13.0,27.0,49,0.00,,,-99.99,638.000000,,2013-01-31 20:31:00,
2013-01-31 14:42:00,9.0,-6.0,-100.00,NW,319,13.0,27.0,49,0.00,,,-99.99,638.000000,,2013-01-31 20:42:00,
2013-01-31 15:12:00,10.0,-5.0,-100.00,NW,318,11.0,24.0,49,0.00,,,0.00,610.000000,,2013-01-31 21:12:00,
2013-01-31 15:22:00,10.0,-5.0,-100.00,NW,318,11.0,24.0,49,0.00,,,0.00,610.000000,,2013-01-31 21:22:00,
2013-01-31 15:32:00,10.0,-5.0,-100.00,NW,318,11.0,24.0,49,0.00,,,0.00,610.000000,,2013-01-31 21:32:00,
2013-01-31 15:42:00,10.0,-5.0,-100.00,NW,318,11.0,24.0,49,0.00,,,0.00,610.000000,,2013-01-31 21:42:00,
2013-01-31 16:11:00,9.0,-6.0,-100.00,NW,322,11.0,25.0,49,0.00,,,0.00,498.000000,,2013-01-31 22:11:00,
2013-01-31 16:22:00,9.0,-6.0,-100.00,NW,322,11.0,25.0,49,0.00,,,0.00,498.000000,,2013-01-31 22:22:00,
2013-01-31 16:33:00,9.0,-6.0,-100.00,NW,322,11.0,25.0,49,0.00,,,0.00,498.000000,,2013-01-31 22:33:00,
2013-01-31 16:42:00,9.0,-6.0,-100.00,NW,322,11.0,25.0,49,0.00,,,0.00,498.000000,,2013-01-31 22:42:00,
2013-01-31 17:12:00,7.0,-8.0,-100.00,NW,323,10.0,22.0,49,0.00,,,0.00,296.000000,,2013-01-31 23:12:00,
2013-01-31 17:22:00,7.0,-8.0,-100.00,NW,323,10.0,22.0,49,0.00,,,0.00,296.000000,,2013-01-31 23:22:00,
2013-01-31 17:32:00,7.0,-8.0,-100.00,NW,323,10.0,22.0,49,0.00,,,0.00,296.000000,,2013-01-31 23:32:00,
2013-01-31 17:42:00,7.0,-8.0,-100.00,NW,323,10.0,22.0,49,0.00,,,0.00,296.000000,,2013-01-31 23:42:00,
2013-01-31 18:11:00,4.0,-9.0,-100.00,NW,321,9.0,18.0,54,0.00,,,0.00,70.000000,,2013-02-01 00:11:00,
2013-01-31 18:22:00,4.0,-9.0,-100.00,NW,321,9.0,18.0,54,0.00,,,0.00,70.000000,,2013-02-01 00:22:00,
2013-01-31 18:32:00,4.0,-9.0,-100.00,NW,321,9.0,18.0,54,0.00,,,0.00,70.000000,,2013-02-01 00:32:00,
2013-01-31 18:42:00,4.0,-9.0,-100.00,NW,321,9.0,18.0,54,0.00,,,0.00,70.000000,,2013-02-01 00:42:00,
2013-01-31 19:11:00,3.0,-9.0,-100.00,NW,323,6.0,16.0,56,0.00,,,0.00,0.000000,,2013-02-01 01:11:00,
2013-01-31 19:21:00,3.0,-9.0,-100.00,NW,323,6.0,16.0,56,0.00,,,0.00,0.000000,,2013-02-01 01:21:00,
2013-01-31 19:32:00,3.0,-9.0,-100.00,NW,323,6.0,16.0,56,0.00,,,0.00,0.000000,,2013-02-01 01:32:00,
2013-01-31 19:42:00,3.0,-9.0,-100.00,NW,323,6.0,16.0,56,0.00,,,0.00,0.000000,,2013-02-01 01:42:00,
2013-01-31 20:11:00,2.0,-9.0,-100.00,NW,321,5.0,13.0,59,0.00,,,0.00,0.000000,,2013-02-01 02:11:00,
2013-01-31 20:21:00,2.0,-9.0,-100.00,NW,321,5.0,13.0,59,0.00,,,0.00,0.000000,,2013-02-01 02:21:00,
2013-01-31 20:32:00,2.0,-9.0,-100.00,NW,321,5.0,13.0,59,0.00,,,0.00,0.000000,,2013-02-01 02:32:00,
2013-01-31 20:42:00,2.0,-9.0,-100.00,NW,321,5.0,13.0,59,0.00,,,0.00,0.000000,,2013-02-01 02:42:00,
2013-01-31 21:12:00,1.0,-9.0,-100.00,NW,314,4.0,10.0,62,0.00,,,0.00,0.000000,,2013-02-01 03:12:00,
2013-01-31 21:21:00,1.0,-9.0,-100.00,NW,314,4.0,10.0,62,0.00,,,0.00,0.000000,,2013-02-01 03:21:00,
2013-01-31 21:32:00,1.0,-9.0,-100.00,NW,314,4.0,10.0,62,0.00,,,0.00,0.000000,,2013-02-01 03:32:00,
2013-01-31 21:42:00,1.0,-9.0,-100.00,NW,314,4.0,10.0,62,0.00,,,0.00,0.000000,,2013-02-01 03:42:00,
2013-01-31 22:11:00,1.0,-9.0,-100.00,NW,319,6.0,12.0,62,0.00,,,0.00,0.000000,,2013-02-01 04:11:00,
2013-01-31 22:21:00,1.0,-9.0,-100.00,NW,319,6.0,12.0,62,0.00,,,0.00,0.000000,,2013-02-01 04:21:00,
2013-01-31 22:32:00,1.0,-9.0,-100.00,NW,319,6.0,12.0,62,0.00,,,0.00,0.000000,,2013-02-01 04:32:00,
2013-01-31 22:41:00,1.0,-9.0,-100.00,NW,319,6.0,12.0,62,0.00,,,0.00,0.000000,,2013-02-01 04:41:00,
2013-01-31 23:12:00,0.0,-10.0,-100.00,NW,307,4.0,11.0,63,0.00,,,0.00,0.000000,,2013-02-01 05:12:00,
2013-01-31 23:22:00,0.0,-10.0,-100.00,NW,307,4.0,11.0,63,0.00,,,0.00,0.000000,,2013-02-01 05:22:00,
2013-01-31 23:32:00,0.0,-10.0,-100.00,NW,307,4.0,11.0,63,0.00,,,0.00,0.000000,,2013-02-01 05:32:00,
2013-01-31 23:42:00,0.0,-10.0,-100.00,NW,307,4.0,11.0,63,0.00,,,0.00,0.000000,,2013-02-01 05:42:00,